Location: Danville Conservation Area
(38.8674°N, 91.5143°W)
Time: 00:24:27
(UTC-06:00)

Envisat - Pass Details

Date: 04 December 2021
Orbit: 764 x 766 km, 98.2° (Epoch: 23 January)

Event Time Altitude Azimuth Distance (km) Brightness Sun altitude
Rises 04:34:24 0° 20° (NNE) 3,239 6.4 -29.4°
Reaches altitude 10° 04:36:50 10° 27° (NNE) 2,308 5.7 -28.9°
Maximum altitude 04:41:39 43° 98° (E) 1,070 4.1 -27.9°
Drops below altitude 10° 04:46:27 10° 170° (S) 2,292 5.6 -27.0°
Sets 04:48:51 0° 177° (S) 3,213 6.4 -26.6°
